D2913 Weather Reports


Display with metric or nautical units.
time (UTC)temp
F
wind
direction
speed
MPH
gust
MPH
rain 1hr
in
rain 24hr
in
rain mn
in
humidity
%
barometer
mb
20260505013016 46 0 0.0 0.0 0.01 0.08 0.02 74 1007.9
20260505012516 46 0 0.0 0.0 0.01 0.08 0.02 73 1007.8
20260505012017 47 0 0.0 0.0 0.01 0.08 0.02 73 1008.1
20260505011532 47 0 0.0 0.0 0.01 0.08 0.02 73 1008.0
20260505011016 47 0 0.0 0.0 0.01 0.08 0.02 73 1008.0
20260505010517 47 0 0.0 0.0 0.01 0.08 0.02 73 1008.0
20260505010016 47 0 0.0 0.0 0.01 0.08 0.02 73 1008.0
20260505005516 47 0 0.0 0.0 0.01 0.08 0.02 73 1008.0
20260505004517 47 0 0.0 0.0 0.01 0.08 0.02 75 1008.2
20260505004017 48 0 0.0 0.0 0.01 0.08 0.02 76 1008.2
20260505003017 48 0 0.0 0.0 0.00 0.07 0.01 74 1008.5
20260505002516 48 0 0.0 0.0 0.00 0.07 0.01 74 1008.4
20260505002016 48 0 0.0 0.0 0.00 0.07 0.01 75 1008.4
20260505001517 48 0 0.0 0.0 0.00 0.07 0.01 75 1008.4
20260505001016 49 0 0.0 0.0 0.01 0.07 0.01 75 1008.4
20260505000517 49 0 0.0 0.0 0.01 0.07 0.01 76 1008.4
20260505000016 49 0 0.0 0.0 0.01 0.07 0.01 77 1008.6
20260504235517 49 0 0.0 0.0 0.01 0.07 0.01 77 1008.8
20260504235016 49 0 0.0 0.0 0.01 0.07 0.01 78 1008.9
20260504234017 49 0 0.0 0.0 0.01 0.07 0.01 77 1008.9
20260504233517 50 0 0.0 0.0 0.01 0.07 0.01 78 1009.1
20260504233016 50 0 0.0 0.0 0.01 0.07 0.01 79 1009.1
20260504232537 50 0 0.0 0.0 0.01 0.07 0.01 79 1009.1
20260504232016 50 0 0.0 0.0 0.01 0.07 0.01 79 1009.2
20260504231517 50 0 0.0 0.0 0.01 0.07 0.01 81 1009.2
20260504231017 51 0 0.0 0.0 0.00 0.06 0.00 82 1009.3
20260504230517 51 0 0.0 0.0 0.00 0.06 0.00 83 1009.3
20260504230016 51 0 0.0 0.0 0.00 0.06 0.00 83 1009.4
20260504225516 52 0 0.0 0.0 0.00 0.06 0.00 83 1009.5
20260504224516 52 0 0.0 0.0 0.01 0.06 0.00 80 1009.6
20260504224016 52 0 0.0 0.0 0.01 0.06 0.00 81 1009.6
20260504223516 52 0 0.0 0.0 0.01 0.06 0.00 81 1009.7
20260504223016 52 0 0.0 0.0 0.01 0.06 0.00 81 1009.8
20260504222516 52 0 0.0 0.0 0.01 0.06 0.00 81 1009.7
20260504221517 53 0 0.0 0.0 0.01 0.06 0.00 81 1009.8
20260504220517 53 0 0.0 0.0 0.01 0.06 0.00 81 1009.8
20260504220016 53 0 0.0 0.0 0.01 0.06 0.06 82 1009.9
20260504215516 53 0 0.0 0.0 0.01 0.06 0.06 82 1009.9
20260504215017 53 0 0.0 0.0 0.00 0.06 0.06 84 1010.0
20260504214516 54 0 0.0 0.0 0.00 0.06 0.06 84 1009.9
20260504214017 54 0 0.0 0.0 0.00 0.06 0.06 84 1009.9
20260504213517 54 0 0.0 0.0 0.01 0.06 0.06 85 1009.9
20260504213016 54 0 0.0 0.0 0.01 0.06 0.06 86 1010.0
20260504212516 55 0 0.0 0.0 0.01 0.06 0.06 87 1010.1
20260504212016 55 0 0.0 0.0 0.01 0.06 0.06 88 1010.1
20260504211516 56 0 0.0 0.0 0.01 0.06 0.06 88 1010.2
20260504211017 56 0 0.0 0.0 0.01 0.06 0.06 89 1010.3
20260504210516 56 0 0.0 0.0 0.01 0.06 0.06 89 1010.3
20260504210016 56 0 0.0 0.0 0.01 0.06 0.06 89 1010.2
20260504205516 56 0 0.0 0.0 0.01 0.06 0.06 89 1010.3
20260504204517 56 0 0.0 0.0 0.01 0.06 0.06 88 1010.3
20260504204017 56 0 0.0 0.0 0.01 0.06 0.06 88 1010.3
20260504203538 56 0 0.0 0.0 0.00 0.05 0.05 87 1010.2
20260504203017 56 0 0.0 0.0 0.00 0.05 0.05 86 1010.2
20260504202516 56 0 0.0 0.0 0.01 0.05 0.05 86 1010.3
20260504202016 56 0 0.0 0.0 0.01 0.05 0.05 86 1010.6
20260504201516 56 0 0.0 0.0 0.01 0.05 0.05 86 1010.8
20260504201017 56 0 0.0 0.0 0.01 0.05 0.05 86 1010.8
20260504200516 56 0 0.0 0.0 0.01 0.05 0.05 86 1010.9
20260504200016 56 0 0.0 0.0 0.02 0.05 0.05 87 1011.0
20260504195516 56 0 0.0 0.0 0.02 0.05 0.05 87 1011.0
20260504195016 56 0 0.0 0.0 0.02 0.05 0.05 87 1011.0
20260504194517 56 0 0.0 0.0 0.02 0.05 0.05 88 1011.1
20260504194016 57 0 0.0 0.0 0.02 0.05 0.05 88 1011.1
20260504193517 57 0 0.0 0.0 0.02 0.05 0.05 89 1011.2
20260504192516 57 0 0.0 0.0 0.02 0.04 0.04 90 1011.6
20260504192016 58 0 0.0 0.0 0.02 0.04 0.04 90 1011.7
20260504191516 58 0 0.0 0.0 0.04 0.04 0.04 90 1011.8
20260504191016 58 0 0.0 0.0 0.04 0.04 0.04 90 1011.7
20260504190516 59 0 0.0 0.0 0.04 0.04 0.04 90 1012.0
20260504190017 59 0 0.0 0.0 0.03 0.03 0.03 90 1011.9
20260504185516 59 0 0.0 0.0 0.03 0.03 0.03 90 1011.7
20260504185016 60 0 0.0 0.0 0.03 0.03 0.03 90 1011.6
20260504184516 60 0 0.0 0.0 0.03 0.03 0.03 89 1011.6
20260504184016 61 0 0.0 0.0 0.02 0.02 0.02 88 1011.5
20260504183517 62 0 0.0 0.0 0.02 0.02 0.02 86 1011.5
20260504183016 63 0 0.0 0.0 0.02 0.02 0.02 84 1011.2
20260504182516 65 0 0.0 0.0 0.02 0.02 0.02 82 1011.3
20260504182017 67 0 0.0 0.0 0.00 0.00 0.00 82 1011.7
20260504181517 68 0 0.0 0.0 0.00 0.00 0.00 79 1011.4
20260504181016 69 0 0.0 0.0 0.00 0.00 0.00 79 1011.4
20260504180516 69 0 0.0 0.0 0.00 0.00 0.00 78 1011.3
20260504180017 69 0 0.0 0.0 0.00 0.00 0.00 78 1011.4
20260504175516 69 0 0.0 0.0 0.00 0.00 0.00 78 1011.4
20260504175016 69 0 0.0 0.0 0.00 0.00 0.00 78 1011.3
20260504174516 69 0 0.0 0.0 0.00 0.00 0.00 78 1011.4
20260504174016 70 0 0.0 0.0 0.00 0.00 0.00 78 1011.4
20260504173516 70 0 0.0 0.0 0.00 0.00 0.00 77 1011.4
20260504173017 71 0 0.0 0.0 0.00 0.00 0.00 77 1011.6
20260504172545 71 0 0.0 0.0 0.00 0.00 0.00 77 1011.6
20260504172017 71 0 0.0 0.0 0.00 0.00 0.00 77 1011.6
20260504151017 73 0 0.0 0.0 0.00 0.00 0.00 73 1011.9
20260504150516 74 0 0.0 0.0 0.00 0.00 0.00 73 1012.0
20260504141017 73 0 0.0 0.0 0.00 0.00 0.00 74 1012.3
20260504140516 74 0 0.0 0.0 0.00 0.00 0.00 73 1012.4
20260504130516 74 0 0.0 0.0 0.00 0.00 0.00 74 1012.9
20260504100517 69 0 0.0 0.0 0.00 0.00 0.00 76 1013.9
20260504081016 67 0 0.0 0.0 0.00 0.00 0.00 79 1014.7
20260504080517 66 0 0.0 0.0 0.00 0.00 0.00 78 1014.6
20260504050536 51 0 0.0 0.0 0.00 0.00 0.00 91 1012.7
20260504050017 51 0 0.0 0.0 0.00 0.00 0.00 91 1012.6
20260504045516 50 0 0.0 0.0 0.00 0.00 0.00 91 1012.7
20260504045017 50 0 0.0 0.0 0.00 0.00 0.00 91 1012.8
20260504044517 50 0 0.0 0.0 0.00 0.00 0.00 91 1012.8
20260504044016 50 0 0.0 0.0 0.00 0.00 0.00 91 1012.8
20260504043517 50 0 0.0 0.0 0.00 0.00 0.00 91 1012.8
20260504043016 50 0 0.0 0.0 0.00 0.00 0.00 91 1012.6
20260504042516 50 0 0.0 0.0 0.00 0.00 0.00 91 1012.8
20260504042016 50 0 0.0 0.0 0.00 0.00 0.00 91 1012.7
20260504041516 50 0 0.0 0.0 0.00 0.00 0.00 91 1012.7
20260504041043 50 0 0.0 0.0 0.00 0.00 0.00 91 1012.8
20260504040016 51 0 0.0 0.0 0.00 0.00 0.00 91 1012.9
20260504035517 51 0 0.0 0.0 0.00 0.00 0.00 91 1012.9
20260504035016 51 0 0.0 0.0 0.00 0.00 0.00 91 1012.9
20260504034517 51 0 0.0 0.0 0.00 0.00 0.00 91 1012.9
20260504034017 51 0 0.0 0.0 0.00 0.00 0.00 91 1013.1
20260504033517 51 0 0.0 0.0 0.00 0.00 0.00 91 1013.0
20260504033016 52 0 0.0 0.0 0.00 0.00 0.00 91 1013.0
20260504032517 52 0 0.0 0.0 0.00 0.00 0.00 91 1013.0
20260504032016 52 0 0.0 0.0 0.00 0.00 0.00 91 1013.0
20260504031519 52 0 0.0 0.0 0.00 0.00 0.00 91 1013.1
20260504030516 52 0 0.0 0.0 0.00 0.00 0.00 90 1013.2
20260504025516 53 0 0.0 0.0 0.00 0.00 0.00 90 1013.3
20260504025017 53 0 0.0 0.0 0.00 0.00 0.00 90 1013.3
20260504024516 52 0 0.0 0.0 0.00 0.00 0.00 90 1013.3
20260504024017 53 0 0.0 0.0 0.00 0.00 0.00 90 1013.4
20260504023517 53 0 0.0 0.0 0.00 0.00 0.00 90 1013.5
20260504023016 53 0 0.0 0.0 0.00 0.00 0.00 89 1013.5
20260504022516 53 0 0.0 0.0 0.00 0.00 0.00 89 1013.4
20260504022017 53 0 0.0 0.0 0.00 0.00 0.00 89 1013.4
20260504021517 53 0 0.0 0.0 0.00 0.00 0.00 89 1013.4
20260504020516 53 0 0.0 0.0 0.00 0.00 0.00 89 1013.4
20260504020017 53 0 0.0 0.0 0.00 0.00 0.00 89 1013.4
20260504015516 53 0 0.0 0.0 0.00 0.00 0.00 89 1013.5
20260504015016 53 0 0.0 0.0 0.00 0.00 0.00 89 1013.6
20260504014517 53 0 0.0 0.0 0.00 0.00 0.00 89 1013.6
20260504014017 53 0 0.0 0.0 0.00 0.00 0.00 89 1013.6
20260504013516 53 0 0.0 0.0 0.00 0.00 0.00 89 1013.6